Retour au catalogue

STARLINK-2322

ActifCommunicationsVLEO
NORAD 47791·PAYLOAD·🇺🇸 United States

Lancé Mar 11, 2021 depuis Cape Canaveral Space Force Station

Loading…

Prochains Passages (prochaines 24 heures)

TLE

FraisSource: CelesTrak SupGP

Époque: Sep 15, 2026, 00:26 UTC

1 47791C 21018E   26258.01854167  .00061516  00000+0  14244-2 0  2588
2 47791  53.1579  79.3590 0001389 266.4136  44.8034 15.41841960    15

Suivez STARLINK-2322 en temps réel avec AllMySat

Download on the App Store